Stations météo

réclame
Mon MeteoGroup
Greifswalder Oie, Allemagne (10097): Température de l'air & dewpoint: 03.07.2020 06:00:00 - 09.07.2020 06:00:00 (CEST)Greifswalder Oie, Allemagne (10097): Température de l'air 5cm & Température de l'air -5cm: 03.07.2020 06:00:00 - 09.07.2020 06:00:00 (CEST)Greifswalder Oie, Allemagne (10097): Température de l'air -20cm & Température de l'air -100cm: 03.07.2020 06:00:00 - 09.07.2020 06:00:00 (CEST)Greifswalder Oie, Allemagne (10097): water temperature: 03.07.2020 06:00:00 - 09.07.2020 06:00:00 (CEST)Greifswalder Oie, Allemagne (10097): Vitesse du vent & gusts: 03.07.2020 06:00:00 - 09.07.2020 06:00:00 (CEST)Greifswalder Oie, Allemagne (10097): Direction du vent: 03.07.2020 06:00:00 - 09.07.2020 06:00:00 (CEST)Greifswalder Oie, Allemagne (10097): reduced air pressure: 03.07.2020 06:00:00 - 09.07.2020 06:00:00 (CEST)Greifswalder Oie, Allemagne (10097): visibility: 03.07.2020 06:00:00 - 09.07.2020 06:00:00 (CEST)Greifswalder Oie, Allemagne (10097): Ensoleillement: 03.07.2020 06:00:00 - 09.07.2020 06:00:00 (CEST)Greifswalder Oie, Allemagne (10097): Quantités de précipitations: 03.07.2020 06:00:00 - 09.07.2020 06:00:00 (CEST)
Date & Time tt [°C] td [°C] tt 5cm [°C] tt -5cm [°C] tt -20cm [°C] tt -100cm [°C] tw [°C] ff [km/h] ff [knt] fx [km/h] fx [knt] dd ppp [hPa] vv [km] sd [min] rr [mm]
09.07.2020 06:00:00 14,1 11,4 13,4 12,9 15,3 16,9 16,4 17 9 23 12 WSW 1015,1 56 0 0,0
09.07.2020 05:00:00 14,5 9,4 13,7 12,8 15,4 16,9 16,4 17 9 24 13 W 1014,8 64 0 0,0
09.07.2020 04:00:00 14,3 11,5 13,3 13,0 15,6 16,9 16,3 18 10 26 14 WSW 1014,8 69 0 0,0
09.07.2020 03:00:00 14,8 9,6 13,8 13,3 15,8 16,9 16,5 20 11 26 14 W 1014,9 58 0 0,0
09.07.2020 02:00:00 14,9 9,4 14,1 13,4 16,0 17,0 16,7 23 12 33 18 W 1014,9 58 0 0,0
09.07.2020 01:00:00 15,2 9,1 14,5 13,4 16,2 17,0 16,8 26 14 35 19 W 1015,0 71 0 0,0
09.07.2020 00:00:00 15,4 8,7 14,5 13,7 16,5 17,0 17,0 27 15 40 22 W 1015,1 73 0 0,0
08.07.2020 23:00:00 15,5 8,4 14,7 14,1 16,8 17,0 17,1 34 19 43 23 W 1014,7 57 0 0,0
08.07.2020 22:00:00 15,9 8,9 15,1 14,7 17,0 17,0 17,2 34 18 41 22 W 1014,4 69 21 0,0
08.07.2020 21:00:00 16,1 9,7 15,1 15,7 17,2 17,0 17,1 28 15 38 21 W 1014,1 64 60 0,0
08.07.2020 20:00:00 16,4 9,0 16,5 17,0 17,2 17,0 17,1 31 17 42 23 W 1013,7 71 60 0,0
08.07.2020 19:00:00 16,8 9,1 17,5 17,8 17,1 17,0 17,1 34 18 45 25 W 1013,6 57 60 0,0
08.07.2020 18:00:00 16,9 8,5 18,3 17,8 17,0 17,1 17,0 34 18 46 25 W 1013,6 75 49 0,0
08.07.2020 17:00:00 16,7 7,8 17,5 17,3 16,9 17,1 17,1 35 19 48 26 WNW 1013,5 73 26 0,0
08.07.2020 16:00:00 16,9 10,0 18,0 17,8 16,7 17,1 17,1 32 17 47 25 W 1013,5 61 38 0,0
08.07.2020 15:00:00 15,6 9,1 17,2 17,1 16,5 17,1 16,8 39 21 48 26 W 1013,4 45 30 0,0
08.07.2020 14:00:00 15,5 9,8 17,4 16,2 16,4 17,1 16,7 35 19 51 27 W 1013,2 74 14 0,0
08.07.2020 13:00:00 14,2 9,5 14,3 15,6 16,3 17,1 16,6 42 23 50 27 WNW 1013,0 54 15 0,0
08.07.2020 12:00:00 12,5 10,0 12,1 14,1 16,4 17,1 16,5 26 14 51 27 W 1013,0 23 0 0,4
08.07.2020 11:00:00 12,8 8,9 11,6 14,5 16,5 17,1 16,5 26 14 50 27 W 1012,7 43 1 1,8
08.07.2020 10:00:00 12,4 10,6 11,6 14,2 16,6 17,1 16,4 20 11 42 23 W 1012,5 15 0 3,8
08.07.2020 09:00:00 13,1 9,9 12,7 14,9 16,7 17,1 16,4 33 18 42 23 W 1012,3 18 0 0,0
08.07.2020 08:00:00 13,2 11,5 13,3 14,4 16,8 17,1 16,4 29 16 42 23 WSW 1012,1 48 0 0,0
08.07.2020 07:00:00 12,5 10,7 11,7 14,0 17,0 17,1 16,4 36 19 46 25 W 1012,0 34 0 0,2
08.07.2020 06:00:00 12,9 10,5 12,9 13,8 17,2 17,1 16,4 35 19 51 27 W 1012,1 43 0 0,0
08.07.2020 05:00:00 13,3 11,1 12,9 13,9 17,6 17,1 16,5 37 20 47 25 W 1011,9 60 0 0,0
08.07.2020 04:00:00 13,3 10,4 12,9 14,3 17,9 17,1 16,7 39 21 51 28 W 1011,9 63 0 0,0
08.07.2020 03:00:00 13,6 11,0 13,2 14,7 18,2 17,1 16,8 39 21 49 26 W 1012,2 59 0 0,0
08.07.2020 02:00:00 13,7 11,8 12,9 15,1 18,6 17,1 16,8 40 21 53 29 W 1012,3 61 0 0,2
08.07.2020 01:00:00 13,9 11,7 13,7 15,5 19,0 17,1 16,9 43 23 53 29 WSW 1012,5 51 0 0,0
08.07.2020 00:00:00 13,9 12,0 13,7 15,9 19,5 17,1 17,0 39 21 51 27 WSW 1012,5 54 0 0,0
07.07.2020 23:00:00 13,6 11,0 13,0 16,4 20,0 17,2 17,2 38 21 47 25 WSW 1012,6 67 0 0,1
07.07.2020 22:00:00 13,8 11,7 12,9 17,4 20,5 17,2 17,6 30 16 46 25 SW 1013,0 54 0 0,7
07.07.2020 21:00:00 14,2 12,0 13,2 18,9 20,9 17,2 17,8 44 24 77 41 W 1013,5 18 0 0,2
07.07.2020 20:00:00 17,6 8,7 17,5 21,4 21,1 17,2 18,4 35 19 49 26 WSW 1013,2 65 0 0,0
07.07.2020 19:00:00 17,9 9,4 18,3 23,1 21,1 17,2 18,7 41 22 51 27 WSW 1013,3 60 3 0,0
07.07.2020 18:00:00 18,4 9,3 19,2 25,0 20,7 17,2 18,7 30 16 38 21 WSW 1013,9 61 42 0,0
07.07.2020 17:00:00 19,9 7,9 23,4 25,4 20,2 17,2 18,6 23 13 35 19 WSW 1014,4 75 26 0,0
07.07.2020 16:00:00 18,0 8,1 20,1 25,3 19,6 17,2 18,3 25 14 40 21 W 1014,9 72 56 0,0
07.07.2020 15:00:00 18,0 8,9 21,3 24,8 19,0 17,2 18,2 29 15 44 24 WSW 1015,4 61 60 0,0
07.07.2020 14:00:00 17,1 9,0 20,4 22,4 18,5 17,2 17,6 35 19 42 23 W 1015,8 54 42 0,0
07.07.2020 13:00:00 16,2 9,5 18,9 20,5 18,2 17,2 17,3 39 21 48 26 W 1015,9 62 26 0,1
07.07.2020 12:00:00 15,5 8,4 16,4 21,2 17,8 17,2 17,3 30 16 46 25 WNW 1015,8 57 36 0,0
07.07.2020 11:00:00 15,8 8,4 17,5 19,7 17,4 17,3 17,2 40 21 54 29 W 1015,7 55 45 0,0
07.07.2020 10:00:00 15,6 8,7 17,3 17,4 17,3 17,3 17,1 41 22 58 31 WNW 1015,2 55 15 0,0
07.07.2020 09:00:00 14,4 8,6 15,0 16,7 17,2 17,3 17,1 48 26 59 32 WNW 1015,0 44 13 0,0
07.07.2020 08:00:00 14,4 9,2 14,8 15,8 17,3 17,3 17,1 39 21 60 32 WNW 1014,9 64 13 0,0
07.07.2020 07:00:00 14,3 8,7 15,2 14,9 17,5 17,3 17,2 47 25 64 35 WNW 1014,3 52 32 0,0
07.07.2020 06:00:00 14,0 8,2 14,1 14,6 17,8 17,3 17,3 49 27 63 34 WNW 1013,5 63 29 0,0
07.07.2020 05:00:00 13,8 8,2 13,4 14,9 18,0 17,3 17,5 50 27 66 36 WNW 1013,3 43 0 0,0
07.07.2020 04:00:00 14,2 9,0 13,8 15,5 18,3 17,3 17,7 55 30 69 38 WNW 1012,8 44 0 0,0
07.07.2020 03:00:00 14,5 9,6 14,3 15,7 18,6 17,3 17,8 44 24 78 42 WNW 1012,5 49 0 0,0
07.07.2020 02:00:00 14,8 9,1 14,6 16,1 18,9 17,3 17,9 58 32 70 38 WNW 1012,2 45 0 0,0
07.07.2020 01:00:00 15,3 9,3 15,0 16,5 19,3 17,3 18,1 55 30 69 37 WNW 1011,6 47 0 0,0
07.07.2020 00:00:00 15,4 10,7 15,2 16,9 19,7 17,3 18,2 47 25 72 39 W 1011,1 40 0 0,0
06.07.2020 23:00:00 15,5 11,1 15,0 17,5 20,0 17,3 18,1 54 29 70 38 W 1010,4 36 0 0,0
06.07.2020 22:00:00 16,1 12,0 15,7 18,4 20,4 17,3 18,5 49 27 67 36 W 1009,9 54 6 0,0
06.07.2020 21:00:00 16,6 11,1 16,5 19,5 20,7 17,4 18,7 54 29 74 40 W 1009,2 51 34 0,0
06.07.2020 20:00:00 17,4 10,5 17,9 20,9 20,9 17,4 18,9 55 30 68 37 W 1008,7 55 41 0,0
06.07.2020 19:00:00 17,9 10,5 18,8 22,3 20,9 17,4 19,1 47 26 66 35 W 1008,2 50 51 0,0
06.07.2020 18:00:00 17,9 10,4 18,4 23,8 20,7 17,4 19,5 50 27 65 35 W 1007,8 50 53 0,0
06.07.2020 17:00:00 18,1 9,8 20,6 24,2 20,3 17,4 19,4 50 27 63 34 W 1007,3 46 49 0,0
06.07.2020 16:00:00 18,5 11,0 20,8 24,9 19,8 17,4 19,4 46 25 62 33 WSW 1006,7 61 55 0,0
06.07.2020 15:00:00 17,4 11,2 19,9 23,4 19,4 17,4 19,0 51 28 71 38 WSW 1006,6 43 59 0,0
06.07.2020 14:00:00 16,4 10,7 17,6 21,1 19,2 17,4 18,6 54 29 80 43 WSW 1006,2 47 34 0,4
06.07.2020 13:00:00 17,3 11,7 18,7 20,8 18,9 17,4 18,4 48 26 66 36 WSW 1005,7 46 27 0,2
06.07.2020 12:00:00 17,5 10,8 20,1 22,3 18,4 17,5 18,6 56 31 71 38 WSW 1005,1 40 36 0,0
06.07.2020 11:00:00 17,5 10,1 19,7 21,7 17,8 17,5 18,4 49 26 61 33 WSW 1005,0 47 55 0,0
06.07.2020 10:00:00 16,9 9,8 18,8 19,3 17,6 17,5 18,0 45 24 55 30 WSW 1004,9 69 52 0,0
06.07.2020 09:00:00 16,2 10,8 16,7 16,6 17,5 17,5 17,8 43 23 51 28 WSW 1005,0 67 2 0,0
06.07.2020 08:00:00 15,7 11,0 15,9 16,1 17,6 17,5 17,9 41 22 51 27 WSW 1004,8 57 9 0,0
06.07.2020 07:00:00 15,7 10,8 15,3 15,5 17,8 17,5 17,9 42 23 49 26 SW 1004,8 53 0 0,0
06.07.2020 06:00:00 15,7 11,2 15,1 15,2 18,0 17,5 18,1 35 19 43 23 SW 1004,6 51 4 0,0
06.07.2020 05:00:00 15,4 10,5 14,5 15,4 18,3 17,5 18,4 31 17 41 22 SW 1004,7 51 0 0,0
06.07.2020 04:00:00 16,2 11,1 15,3 15,7 18,6 17,5 18,5 33 18 45 25 WSW 1005,1 52 0 0,0
06.07.2020 03:00:00 16,8 10,7 16,2 16,3 18,8 17,5 18,6 38 20 54 29 W 1005,8 59 0 0,0
06.07.2020 02:00:00 17,3 13,1 16,7 16,9 19,1 17,5 18,7 33 18 52 28 WSW 1005,8 50 0 0,0
06.07.2020 01:00:00 17,7 12,4 17,4 17,3 19,3 17,5 19,0 39 21 50 27 W 1005,9 48 0 0,0
06.07.2020 00:00:00 18,3 13,2 17,8 17,6 19,6 17,6 19,3 39 21 49 26 W 1005,7 49 0 0,0
05.07.2020 23:00:00 18,4 13,4 18,0 18,1 19,8 17,6 19,4 35 19 45 24 W 1005,9 48 0 0,0
05.07.2020 22:00:00 19,1 14,0 18,5 18,7 20,0 17,6 19,4 36 19 57 31 W 1005,9 58 5 0,0
05.07.2020 21:00:00 19,7 14,3 19,4 19,7 20,1 17,6 19,5 42 23 50 27 WNW 1005,0 49 44 0,0
05.07.2020 20:00:00 20,3 15,3 20,2 20,5 20,1 17,6 19,7 31 17 49 26 W 1004,9 64 22 0,0
05.07.2020 19:00:00 21,6 16,5 22,9 20,8 20,1 17,6 19,8 38 20 49 26 WSW 1005,0 58 25 0,0
05.07.2020 18:00:00 20,2 16,4 19,6 20,7 20,0 17,6 19,7 44 24 59 32 WSW 1005,3 51 15 0,1
05.07.2020 17:00:00 20,6 17,2 23,0 20,9 20,0 17,6 19,8 41 22 53 29 SW 1005,3 67 10 0,0
05.07.2020 16:00:00 19,4 17,7 19,2 20,6 20,0 17,6 19,7 41 22 58 31 WSW 1005,5 57 0 0,3
05.07.2020 15:00:00 19,3 17,7 19,0 20,5 20,0 17,6 19,9 40 21 63 34 WSW 1005,5 17 0 0,0
05.07.2020 14:00:00 21,1 16,8 20,3 21,3 19,8 17,6 20,1 53 28 68 37 SW 1004,6 51 3 0,0
05.07.2020 13:00:00 21,4 16,7 22,8 21,5 19,5 17,6 20,1 50 27 65 35 SW 1004,7 64 9 0,0
05.07.2020 12:00:00 21,0 17,2 22,5 21,5 19,3 17,6 19,9 41 22 57 31 SW 1005,1 75 29 0,0
05.07.2020 11:00:00 19,6 17,3 20,5 20,0 19,1 17,6 19,4 40 22 49 27 SW 1005,4 58 0 0,0
05.07.2020 10:00:00 19,1 17,4 20,3 19,2 19,0 17,6 19,2 35 19 45 24 SSW 1005,9 61 0 0,0
05.07.2020 09:00:00 18,3 17,4 18,1 18,7 19,0 17,6 19,1 32 18 45 25 SSW 1006,1 44 0 0,0
05.07.2020 08:00:00 18,2 17,2 18,3 18,4 19,0 17,6 19,1 34 18 42 23 SSW 1006,4 19 0 0,0
05.07.2020 07:00:00 18,0 17,0 17,5 17,9 19,0 17,6 19,0 35 19 44 24 SSW 1006,7 54 0 0,0
05.07.2020 06:00:00 17,7 17,0 17,3 17,7 19,1 17,6 19,0 33 18 41 22 SSW 1007,2 28 0 0,0
05.07.2020 05:00:00 17,8 16,7 17,1 17,6 19,3 17,6 19,0 34 18 42 23 SW 1007,5 51 0 0,1
05.07.2020 04:00:00 17,5 16,5 16,9 17,6 19,4 17,6 19,1 29 16 39 21 SW 1008,0 42 0 0,6
05.07.2020 03:00:00 17,6 16,4 17,0 17,6 19,6 17,6 19,1 33 18 41 22 SW 1008,5 30 0 0,2
05.07.2020 02:00:00 17,9 16,1 16,9 17,7 19,8 17,6 19,1 32 17 44 24 SW 1008,9 28 0 0,0
05.07.2020 01:00:00 18,3 15,8 18,0 17,9 20,0 17,6 19,1 40 21 49 26 WSW 1009,2 59 0 0,0
05.07.2020 00:00:00 18,3 15,9 17,8 18,1 20,2 17,6 19,2 33 18 47 25 SW 1009,4 52 0 0,0
04.07.2020 23:00:00 18,2 15,9 17,7 18,3 20,5 17,6 19,3 28 15 34 18 SW 1009,8 52 0 0,0
04.07.2020 22:00:00 17,9 16,1 16,9 18,5 20,8 17,6 19,3 28 15 41 22 SW 1009,9 50 0 0,0
04.07.2020 21:00:00 17,6 16,1 16,7 18,9 21,1 17,6 19,3 32 17 40 22 SW 1010,1 51 0 0,0
04.07.2020 20:00:00 17,4 15,9 16,6 19,5 21,4 17,6 19,4 29 16 49 26 SW 1010,3 12 0 2,9
04.07.2020 19:00:00 19,4 15,1 18,6 20,6 21,6 17,6 19,5 38 21 56 30 WSW 1010,3 37 0 0,0
04.07.2020 18:00:00 19,7 14,7 19,7 21,2 21,8 17,6 19,5 44 24 67 36 WSW 1010,3 49 0 0,1
04.07.2020 17:00:00 19,7 14,4 18,5 22,8 21,8 17,6 20,0 43 23 61 33 SW 1010,1 24 0 0,0
04.07.2020 16:00:00 20,6 13,8 21,1 23,9 21,6 17,6 20,1 46 25 59 32 SW 1010,2 56 1 0,0
04.07.2020 15:00:00 20,5 14,0 22,6 24,0 21,4 17,6 19,9 42 23 55 30 SW 1010,6 64 0 0,0
04.07.2020 14:00:00 18,8 14,1 20,7 22,8 21,2 17,6 19,7 47 25 57 31 SW 1011,2 53 0 0,0
04.07.2020 13:00:00 18,3 13,7 20,2 22,8 21,0 17,6 19,6 41 22 55 30 SW 1011,7 45 0 0,0
04.07.2020 12:00:00 18,6 13,4 19,8 22,2 20,9 17,6 19,4 37 20 57 31 WSW 1011,8 41 0 0,0
04.07.2020 11:00:00 18,9 14,0 20,3 21,6 20,9 17,6 19,3 37 20 49 26 WSW 1011,7 46 0 0,0
04.07.2020 10:00:00 18,6 12,8 19,7 21,2 20,8 17,6 19,2 42 23 51 28 WSW 1011,6 49 0 0,0
04.07.2020 09:00:00 18,4 12,9 18,6 20,6 20,8 17,5 19,1 44 24 53 29 WSW 1011,6 46 0 0,0
04.07.2020 08:00:00 18,3 12,8 18,8 19,9 20,9 17,5 19,1 35 19 47 25 SW 1011,7 56 0 0,0
04.07.2020 07:00:00 18,1 13,5 18,4 19,7 21,1 17,5 19,2 35 19 45 25 SSW 1011,7 55 0 0,0
04.07.2020 06:00:00 18,3 13,4 18,3 19,5 21,3 17,5 19,2 39 21 48 26 SSW 1012,0 45 0 0,0
04.07.2020 05:00:00 18,4 13,6 18,2 19,6 21,6 17,5 19,3 36 19 44 24 SSW 1012,1 48 0 0,0
04.07.2020 04:00:00 18,4 13,8 18,1 19,9 21,9 17,5 20,0 26 14 33 18 SW 1012,6 48 0 0,0
04.07.2020 03:00:00 18,6 14,0 18,3 20,2 22,2 17,5 20,4 29 15 39 21 WSW 1013,0 51 0 0,0
04.07.2020 02:00:00 18,2 13,8 18,1 20,5 22,5 17,5 20,7 27 14 34 18 SW 1013,5 57 0 0,0
04.07.2020 01:00:00 17,9 13,8 17,7 20,7 22,9 17,5 21,0 19 10 23 12 SSW 1013,8 58 0 0,0
04.07.2020 00:00:00 17,9 14,1 17,8 21,3 23,3 17,5 21,1 17 9 22 12 SSW 1014,0 62 0 0,0
03.07.2020 23:00:00 18,2 13,4 18,0 21,8 23,7 17,5 21,1 15 8 24 13 SSW 1013,9 57 0 0,0
03.07.2020 22:00:00 18,6 13,7 18,3 22,4 24,2 17,5 20,9 23 13 59 32 WSW 1014,3 62 0 0,0
03.07.2020 21:00:00 18,0 14,9 17,5 23,8 24,6 17,4 21,3 6 3 17 9 SE 1014,0 66 0 0,0
03.07.2020 20:00:00 18,0 14,0 18,7 25,4 25,0 17,4 21,6 11 6 18 10 SE 1013,9 54 0 0,0
03.07.2020 19:00:00 17,8 13,4 19,1 27,0 25,1 17,4 21,9 10 5 16 9 SSE 1013,9 66 10 0,0
03.07.2020 18:00:00 17,7 13,0 20,8 28,2 25,2 17,4 21,9 11 6 20 11 SE 1014,2 59 3 0,0
03.07.2020 17:00:00 19,2 12,3 22,5 29,9 24,9 17,4 21,1 6 4 16 9 SSW 1014,3 72 12 0,0
03.07.2020 16:00:00 19,1 11,5 21,8 31,6 24,3 17,4 21,1 12 6 18 10 WNW 1014,3 68 26 0,0
03.07.2020 15:00:00 19,9 11,9 25,3 32,2 23,5 17,4 21,1 7 4 13 7 N 1014,3 63 45 0,0
03.07.2020 14:00:00 19,9 12,7 24,9 31,3 22,7 17,4 20,9 7 4 16 9 NNW 1014,4 75 40 0,0
03.07.2020 13:00:00 20,3 13,1 24,8 30,4 21,8 17,4 20,6 11 6 18 10 N 1014,0 67 54 0,0
03.07.2020 12:00:00 19,5 12,3 24,3 27,8 21,0 17,4 20,2 10 6 28 15 NNW 1013,7 41 36 0,0
03.07.2020 11:00:00 19,3 13,1 23,4 26,5 20,3 17,4 20,2 20 11 27 14 N 1013,2 54 59 0,0
03.07.2020 10:00:00 19,8 13,3 24,1 23,2 20,0 17,4 20,2 15 8 24 13 N 1012,7 51 54 0,0
03.07.2020 09:00:00 18,4 14,1 19,0 20,0 20,0 17,4 19,8 19 11 34 18 NW 1012,3 59 14 0,0
03.07.2020 08:00:00 17,4 15,4 19,1 19,1 20,1 17,4 19,7 26 14 32 17 W 1011,7 34 7 0,0
03.07.2020 07:00:00 17,1 15,4 17,3 18,7 20,2 17,4 19,7 23 12 29 16 W 1011,4 38 0 0,0
03.07.2020 06:00:00 17,2 15,9 17,3 18,6 20,5 17,4 19,7 23 12 29 16 W 1011,0 27 0 0,0

tt = Température de l'air
td = dewpoint
tt 5cm = Température de l'air 5cm
tt -5cm = Température de l'air -5cm
tt -20cm = Température de l'air -20cm
tt -100cm = Température de l'air -100cm
tw = water temperature
ff = Vitesse du vent
fx = gusts
dd = Direction du vent
ppp = reduced air pressure
vv = visibility
sd = Ensoleillement
rr = Quantités de précipitations

stations d'obs. à proximité